Regional Weather Roundup
Issued by NWS

Home | Current Version | Previous Version | Text Only | Print | Product List | Glossary Off
Versions: 1 2 3 4 5 6 7 8 9 10 11 12 13 14 15 16 17 18 19 20 21 22 23 24 25 26 27 28 29 30 31 32 33 34 35 36 37 38 39 40 41 42 43 44 45 46 47 48 49 50

000
ASUS43 KLMK 020710
RWRKY
KENTUCKY REGIONAL WEATHER ROUNDUP
NATIONAL WEATHER SERVICE LOUISVILLE KY
300 AM EDT MON MAY 02 2016

NOTE "FAIR" INDICATES FEW OR NO CLOUDS BELOW 12,000 FEET
WITH NO SIGNIFICANT WEATHER AND/OR OBSTRUCTIONS TO VISIBILITY.

KYZ001>023-026-027-061>063-070>075-020800-
WESTERN AND SOUTH CENTRAL KENTUCKY

CITY           SKY/WX    TMP DP  RH WIND       PRES   REMARKS
PADUCAH        CLEAR     60  47  61 N6        29.99S
HENDERSON      CLEAR     61  50  67 NW8       29.98F
OWENSBORO      CLEAR     61  53  74 NW7       29.98S
HOPKINSVILLE   MOCLDY    66  64  94 VRB7      29.95S
BOWLING GREEN  CLOUDY    69  65  86 W8        29.95S
GLASGOW        MOCLDY    66  66 100 SW6       29.94F
$$

KYZ024-025-028>034-038-045-046-053-020800-
NORTH CENTRAL KENTUCKY

CITY           SKY/WX    TMP DP  RH WIND       PRES   REMARKS
LOUISVILLE/SDF CLOUDY    66  60  81 NW10      29.93R
LOUISVILLE/LOU CLOUDY    66  58  75 NW13      29.94R
FORT KNOX      CLOUDY    64  61  88 W9        29.92F
$$

KYZ035>037-039>044-047>052-055>060-089>105-020800-
NORTHEAST KENTUCKY

CITY           SKY/WX    TMP DP  RH WIND       PRES   REMARKS
LEXINGTON      MOCLDY    64  60  87 SW8       29.91F
COVINGTON      PTCLDY    61  60  97 W3        29.90S
FRANKFORT      CLEAR     64  60  87 SW6       29.90F
$$

KYZ054-064>069-076>088-106>120-020800-
SOUTHEAST KENTUCKY

CITY           SKY/WX    TMP DP  RH WIND       PRES   REMARKS
JACKSON        PTCLDY    62  59  90 SW3       29.95S
LONDON         CLEAR     67  61  81 SW7       29.96F
SOMERSET       MOCLDY    66  59  77 SW6       29.97F
MIDDLESBORO    PTCLDY    60  60  99 CALM      29.99R
MONTICELLO     PTSUNNY   67  62  84 W13       29.98F
$$





USA.gov is the U.S. government's official web portal to all federal, state and local government web resources and services.